RH
21 20 15 12 12 12 10 11 13 15 21 24 30 40 50 49 62 88 92 88 75 65 46 43 54 50 26 48 44 38 38 33 24 21 25 54 87 89 99 86 80 89 82 76
20 18 16 12 11 11 11 11 11 11 15 24 30 31 43 62 50 84 89 92 88 74 56 51 56 54 35 41 32 22 18 17 18 17 30 34 93 78 59 75 77 79 88 87
16 15 14 15 14 12 11 11 11 11 12 22 28 30 34 62 68 80 86 87 96 92 44 41 57 58 30 35 23 17 18 18 19 20 17 16 75 28 61 49 85 84 83 72
16 14 13 13 13 12 11 11 11 11 11 31 33 30 38 57 62 53 79 84 90 97 67 49 53 51 37 28 20 17 19 20 19 16 13 16 18 27 34 83 81 73 42 13
18 16 14 13 14 13 13 13 13 13 12 14 27 27 27 42 58 52 67 78 83 88 53 46 47 39 35 21 19 21 22 22 19 15 11 11 12 15 24 37 29 16 8 2
19 18 15 16 16 13 13 13 13 13 13 16 16 24 32 30 44 54 62 70 74 79 50 32 34 27 23 19 19 22 23 20 18 15 11 9 11 12 13 12 10 5 1 1
21 19 17 16 17 17 15 14 15 18 18 17 13 14 26 24 28 42 37 47 52 68 50 25 22 20 17 20 23 24 21 20 18 13 10 11 13 13 10 6 3 1 1 2
18 17 16 17 17 17 17 16 18 23 22 16 12 12 13 22 25 31 37 41 55 62 41 25 22 19 17 20 23 23 22 22 19 13 11 12 11 9 4 2 1 2 2 2
20 18 16 14 16 16 16 16 14 16 17 18 14 11 10 12 20 24 34 47 45 44 46 35 27 21 18 18 23 23 24 23 21 12 10 11 8 3 2 2 2 2 2 2
46 40 25 18 17 15 17 18 17 15 23 25 16 14 12 11 12 16 19 33 42 43 45 37 29 24 20 20 24 24 26 26 20 11 11 10 4 2 2 2 2 2 2 2
58 51 40 33 20 20 18 18 18 17 18 24 22 17 13 13 13 15 16 27 37 45 42 31 28 26 24 32 33 30 32 28 17 9 9 6 2 2 2 2 2 2 3 3
66 76 64 45 32 26 22 21 18 19 19 18 20 19 14 14 17 20 19 35 41 45 44 36 35 31 26 29 32 34 34 30 11 8 6 3 2 2 3 3 3 3 3 3
66 63 56 39 34 32 26 23 22 20 21 20 24 23 16 13 14 18 22 30 34 42 48 40 45 43 33 33 37 41 38 26 7 4 4 2 2 3 3 3 3 3 3 4
74 85 75 60 46 41 42 34 26 23 26 26 22 17 17 17 16 16 19 27 37 52 46 42 49 52 44 32 37 44 41 20 16 6 3 3 3 3 3 3 4 4 4 4
72 89 86 77 68 58 55 60 52 51 43 28 24 22 19 18 19 20 18 32 40 60 56 53 45 49 35 28 33 44 44 29 30 10 3 3 3 4 4 4 4 4 4 4
74 81 75 68 71 76 63 55 52 53 54 38 32 22 22 22 21 19 22 31 45 43 46 51 43 52 40 29 30 40 46 38 35 11 4 4 4 4 4 4 5 5 5 5
75 84 76 74 57 50 68 52 52 46 43 41 36 29 19 20 22 26 24 30 30 65 60 54 37 24 27 30 31 46 50 44 38 10 4 4 4 4 5 5 5 5 5 5
66 65 59 67 64 78 42 50 45 42 38 36 37 36 28 25 23 23 29 40 44 40 56 53 45 42 43 42 37 54 55 50 42 24 6 5 5 5 6 6 6 6 6 6
54 61 63 61 63 52 47 42 42 32 38 47 54 43 38 35 30 30 29 37 42 43 51 51 50 59 58 49 44 59 58 55 46 40 12 8 7 6 6 6 6 7 6 6
48 52 60 64 60 62 40 39 39 41 46 74 76 70 56 48 40 36 33 34 60 74 56 54 60 50 54 42 44 48 58 58 52 48 24 16 12 8 7 7 7 7 7 7
47 48 76 66 65 52 45 43 41 42 54 92 93 75 70 69 70 44 40 37 42 82 59 37 40 35 36 47 51 52 62 61 56 53 35 22 18 10 8 8 8 8 8 7
51 47 56 86 93 72 45 59 84 98 95 94 97 92 65 58 66 51 54 51 51 67 58 52 38 33 30 40 47 46 54 65 61 56 36 27 22 13 9 8 9 9 9 8
79 60 61 90 77 92 94 89 99 96 98 98 88 94 84 81 73 68 58 52 58 72 69 61 45 36 35 36 38 44 49 65 66 60 44 34 26 15 10 10 10 10 9 8
58 60 61 61 51 60 72 92 92 94 94 97 91 78 96 93 82 77 66 58 65 80 79 69 71 54 43 38 38 52 50 58 70 64 52 41 32 20 12 11 11 10 10 9
78 77 75 68 56 69 63 68 76 87 89 92 91 76 82 94 81 78 72 75 67 70 81 87 83 88 64 48 44 48 52 48 72 67 56 48 37 25 15 13 12 11 11 10
90 80 83 67 71 70 70 66 68 68 68 72 74 73 80 94 88 81 77 71 71 61 67 82 89 89 91 73 47 45 52 57 69 73 58 52 44 30 19 16 13 13 11 9
Wind_Speed
14 17 24 20 23 30 29 33 35 31 33 37 36 29 30 25 23 27 29 30 28 32 32 30 33 32 26 19 21 20 19 19 19 19 20 16 24 18 20 19 19 17 19 21
17 28 18 18 22 26 29 33 38 36 33 38 34 33 32 28 28 29 31 30 31 31 37 35 34 32 26 24 24 22 21 20 20 21 21 24 24 25 26 27 23 20 18 18
24 18 18 19 23 26 30 33 36 36 28 17 32 33 30 28 25 27 30 29 30 34 38 35 34 33 29 27 25 23 22 21 20 22 22 22 28 28 28 22 21 23 22 23
24 20 22 23 21 23 30 27 29 33 39 18 28 16 30 29 31 36 34 34 33 36 39 35 35 34 32 29 28 26 23 21 20 21 22 22 24 24 23 20 19 20 21 18
25 22 23 27 27 19 27 23 24 29 37 30 28 30 33 43 37 37 37 38 36 38 40 36 35 33 34 31 28 25 22 21 21 21 22 23 23 22 21 20 20 18 15 12
27 23 22 22 20 23 23 21 24 29 32 25 38 32 34 36 42 33 33 37 38 40 42 35 35 36 35 31 29 25 22 21 22 22 22 23 22 20 19 18 16 14 12 10
25 30 27 22 20 19 21 22 19 16 20 16 39 44 32 35 37 37 32 39 44 44 44 37 37 38 36 34 29 24 22 23 22 22 22 21 20 19 18 18 15 13 12 11
24 26 27 28 34 26 23 26 23 14 15 19 39 39 50 37 31 37 40 34 42 44 45 40 40 37 37 33 26 25 24 24 23 22 22 22 21 20 19 17 15 14 13 11
28 36 26 23 27 28 34 33 32 30 33 22 31 38 46 41 42 45 40 42 47 46 41 42 44 43 41 35 28 26 27 25 25 25 23 24 22 21 19 18 16 15 13 12
12 23 24 28 17 24 28 27 27 30 21 21 29 37 35 34 45 44 42 47 50 43 40 37 43 44 41 35 32 31 30 28 26 25 25 24 23 21 20 18 17 15 15 14
12 18 25 22 32 23 23 28 31 31 27 16 18 28 42 35 35 40 45 42 50 45 39 38 32 39 37 40 47 36 31 28 26 25 25 23 23 22 20 19 18 17 16 15
12 12 17 27 25 28 30 32 29 31 32 34 27 33 40 32 25 17 32 39 35 37 38 38 37 37 42 45 43 36 32 29 28 27 24 24 24 22 20 19 19 18 17 16
14 7 17 27 29 27 35 34 30 34 32 34 25 27 32 46 45 31 17 35 43 47 39 38 42 45 42 41 40 36 33 29 28 28 25 25 24 23 21 21 20 19 18 16
12 13 16 22 26 29 31 29 36 36 31 30 32 43 43 35 36 36 27 26 27 49 42 41 47 43 43 42 39 37 34 31 28 27 26 26 25 23 23 22 21 20 18 17
12 19 18 26 29 34 35 33 29 33 31 33 36 38 43 42 38 27 32 25 24 45 41 46 43 43 34 38 36 37 35 31 29 27 26 27 25 25 24 23 22 20 19 17
11 22 19 32 29 28 36 34 31 29 29 35 35 44 38 33 33 38 27 24 29 43 35 50 42 41 39 38 36 38 37 34 31 27 28 27 26 24 24 23 22 21 19 18
24 21 23 35 28 29 29 47 36 35 31 32 35 31 38 37 33 33 31 34 35 37 43 42 35 34 38 38 34 40 39 35 31 27 27 27 26 25 24 23 22 22 20 20
32 28 27 33 26 20 44 30 33 34 37 38 35 32 32 30 31 31 35 23 22 33 33 41 38 35 39 38 36 42 40 36 31 28 26 26 26 25 25 24 24 23 22 22
36 31 28 29 30 34 35 29 27 28 32 25 21 25 28 30 31 27 30 23 32 31 41 44 39 40 38 37 37 42 40 38 34 29 25 26 25 24 25 25 25 24 24 22
14 31 33 30 26 21 45 33 34 34 41 27 20 20 16 19 19 26 24 29 23 31 39 38 35 28 34 32 29 36 40 40 36 32 27 27 24 25 26 26 26 25 24 23
27 22 29 37 33 30 28 25 22 29 27 10 17 20 21 5 7 14 19 27 19 29 30 23 28 26 22 27 26 30 41 43 38 34 29 28 27 27 27 28 27 26 25 23
30 30 23 15 18 27 19 17 13 9 16 25 25 22 23 18 9 15 7 8 18 30 26 21 23 28 25 26 23 22 33 43 43 36 32 30 29 28 28 29 28 27 25 23
28 24 20 16 22 15 9 14 20 6 8 6 19 26 28 13 10 8 15 13 6 16 28 24 20 20 24 27 28 25 25 41 45 40 34 32 29 29 28 29 29 28 25 23
35 30 36 33 42 33 25 11 19 23 23 9 6 22 24 21 7 7 16 19 14 8 18 22 28 27 26 29 33 33 29 34 45 41 35 33 30 29 29 30 30 28 25 23
38 31 35 45 50 32 34 29 25 22 23 25 21 22 26 27 9 5 11 22 23 20 15 21 26 35 32 32 35 36 35 34 42 43 38 35 32 29 30 31 30 28 26 23
37 40 41 60 37 35 38 36 32 33 34 32 32 31 27 33 24 7 12 20 24 24 26 22 29 31 37 38 35 36 38 38 41 47 42 38 34 31 32 30 30 27 25 23
Wind_Direction
236 239 234 235 236 237 242 240 240 238 237 212 213 216 214 217 216 194 198 214 210 212 217 214 217 225 237 228 231 233 236 241 247 254 257 258 261 255 268 275 269 264 271 278
236 239 246 246 243 242 240 246 247 250 238 219 217 226 213 202 217 199 202 210 213 216 222 219 221 229 232 231 232 233 237 243 250 258 261 263 246 266 264 263 269 267 269 268
237 248 244 250 246 245 242 239 244 248 250 257 211 220 219 205 201 199 209 211 212 219 228 226 223 228 233 231 232 235 241 250 258 260 261 261 253 260 261 264 255 261 264 273
246 247 248 245 253 243 250 243 249 250 252 204 223 224 209 209 213 217 208 208 208 215 229 226 224 228 235 230 234 239 247 254 256 259 259 255 254 253 258 262 258 258 266 266
246 245 246 246 250 251 250 257 255 253 257 252 231 229 234 218 214 221 210 208 212 222 230 225 224 228 233 235 237 242 248 252 256 258 256 250 253 252 251 252 255 255 252 255
249 251 244 253 251 243 251 251 257 259 262 257 249 230 233 227 213 210 213 217 210 219 231 229 228 231 233 237 242 244 248 253 257 258 251 251 248 249 247 246 244 244 243 241
252 247 247 242 249 244 242 241 246 252 247 249 247 247 227 229 228 221 233 229 227 221 230 230 235 235 236 239 239 243 248 254 259 256 252 246 244 241 239 239 238 233 232 236
263 248 238 238 238 240 236 230 228 235 231 241 242 244 244 233 240 239 235 232 224 224 234 227 233 242 244 243 240 243 250 256 258 255 246 242 239 240 241 236 230 227 229 236
253 261 260 255 238 229 239 243 239 234 255 264 257 250 245 241 234 240 233 223 228 239 241 233 233 236 240 243 241 245 248 252 253 248 241 239 239 235 231 229 227 229 233 240
274 295 253 250 267 235 234 245 247 232 239 249 253 255 256 238 236 236 245 225 225 229 236 236 237 231 235 239 240 241 243 244 246 244 238 237 237 228 225 226 227 229 233 238
302 269 266 269 242 248 244 241 245 259 256 233 253 251 248 257 256 235 235 222 223 219 233 245 246 237 226 234 244 236 242 248 246 242 239 236 230 225 224 225 227 229 233 239
290 286 271 258 259 256 255 253 246 234 253 257 259 252 250 249 259 292 254 208 221 228 230 244 239 235 235 230 228 232 238 244 245 239 235 231 227 226 226 226 227 230 234 240
288 274 284 265 259 258 254 251 252 259 260 244 261 267 259 253 260 264 272 221 227 220 221 239 243 241 239 236 227 227 233 236 238 239 231 228 227 226 226 226 227 231 235 241
294 270 264 271 274 281 294 274 256 254 255 260 249 256 257 258 264 261 266 234 218 214 223 235 242 243 238 229 222 224 228 228 230 235 229 227 226 224 225 227 229 233 237 242
282 274 281 277 274 278 282 284 281 283 285 258 254 254 254 257 261 273 258 237 246 206 226 236 249 248 249 228 225 223 225 224 228 229 227 228 226 223 224 228 231 234 238 241
276 274 280 280 277 277 281 275 272 267 263 264 270 254 259 257 262 261 271 240 240 240 225 232 242 241 233 235 234 225 223 222 227 226 224 225 223 224 227 230 231 234 235 239
266 265 271 274 282 280 277 252 258 261 262 269 278 279 259 261 262 259 260 251 247 221 225 230 247 245 243 238 232 223 220 221 226 226 223 225 224 225 228 230 232 233 235 238
257 254 255 265 279 260 253 260 263 265 267 270 272 270 273 267 262 259 258 254 246 217 234 245 247 247 244 240 234 219 218 218 223 226 223 225 226 226 229 230 231 232 233 236
248 245 251 246 250 260 265 251 246 251 274 290 279 272 273 278 273 279 244 266 243 224 223 237 243 244 245 241 236 220 216 217 220 224 224 226 228 229 231 231 230 230 232 235
270 246 234 244 253 251 260 263 254 269 276 282 283 284 285 278 274 258 261 262 242 230 221 224 229 238 239 239 237 227 217 217 220 225 223 227 229 230 231 230 229 230 232 234
281 277 233 235 239 255 258 266 262 273 269 274 256 256 255 274 276 248 264 258 246 229 228 236 226 234 245 243 232 231 219 216 219 224 223 226 228 229 230 228 228 230 231 233
262 267 259 265 264 247 255 263 280 275 270 269 276 251 236 222 201 204 199 256 222 220 223 231 236 246 249 246 236 236 227 218 219 219 221 225 228 229 228 229 228 229 231 233
267 261 287 264 252 252 224 265 269 302 314 345 291 261 254 215 174 189 196 184 193 237 229 237 238 238 237 237 243 239 230 222 222 219 219 226 228 230 229 230 229 230 230 232
267 271 274 283 256 271 286 302 298 310 295 280 333 305 249 232 168 179 184 184 178 197 252 243 226 230 235 235 239 237 233 227 225 222 220 226 230 233 228 228 229 229 230 232
261 267 268 265 258 276 270 280 286 283 294 291 294 295 281 246 240 136 206 169 180 181 192 243 232 228 234 241 241 241 232 232 226 220 221 227 231 234 230 230 231 231 232 234
255 257 256 259 273 275 276 271 276 279 282 288 290 294 279 252 245 232 252 184 180 187 188 204 236 232 231 237 242 243 240 230 224 220 219 226 231 234 233 234 235 233 229 228